Hourly Data Report for October 29, 2012

All times are specified in Local Standard Time (LST). Add 1 hour to adjust for Daylight Saving Time where and when it is observed.

KITCHENER/WATERLOO
ONTARIO

43°27'39.000" N
80°22'43.000" W
321.60 m
6144239
71368
YKF

Download Data

Hourly Data (October 2012)
Hourly Data Report for October 29, 2012
Temp Definition
°C
Dew Point Temp Definition
°C
Rel Hum Definition
%
Wind Dir Definition
10's deg

Wind Spd Definition
km/h
Visibility Definition
km
Stn Press Definition
kPa
Hmdx Definition


Wind Chill Definition


Weather Definition


TIME
00:00 Legend Double Dagger 2.8 1.8 93 35 24 16.1 97.67     LegendNANA
01:00 Legend Double Dagger 2.9 1.7 92 36 22 16.1 97.61     LegendNANA
02:00 Legend Double Dagger 2.8 1.6 92 35 21 12.9 97.59     LegendNANA
03:00 Legend Double Dagger 2.8 1.6 92 35 26 16.1 97.52     LegendNANA
04:00 Legend Double Dagger 2.8 1.6 92 35 21 14.5 97.50     LegendNANA
05:00 Legend Double Dagger 2.7 1.7 93 35 17 16.1 97.49     LegendNANA
06:00 Legend Double Dagger 2.7 1.7 93 36 24 9.7 97.49     LegendNANA
07:00 Legend Double Dagger 2.8 1.8 93 36 24 12.9 97.46     LegendNANA
08:00 Legend Double Dagger 2.9 1.9 93 35 28 16.1 97.43     LegendNANA
09:00 Legend Double Dagger 3.2 2.0 92 36 24 16.1 97.40     LegendNANA
10:00 Legend Double Dagger 3.6 2.3 91 36 24 16.1 97.36     LegendNANA
11:00 Legend Double Dagger 3.7 2.4 91 36 30 16.1 97.31     LegendNANA
12:00 Legend Double Dagger 3.7 2.5 92 35 37 16.1 97.24     LegendNANA
13:00 Legend Double Dagger 3.8 2.6 92 35 30 16.1 97.16     LegendNANA
14:00 Legend Double Dagger 3.8 2.5 91 35 33 16.1 97.04     LegendNANA
15:00 Legend Double Dagger 3.7 2.2 90 35 39 16.1 96.93     LegendNANA
16:00 Legend Double Dagger 3.3 2.4 94 35 33 8.1 96.83     LegendNANA
17:00 Legend Double Dagger 3.5 2.2 91 35 39 16.1 96.74     LegendNANA
18:00 Legend Double Dagger 3.5 1.8 89 35 39 16.1 96.60     LegendNANA
19:00 Legend Double Dagger 3.5 1.4 86 35 48 16.1 96.41     LegendNANA
20:00 Legend Double Dagger 3.3 1.2 86 35 58 16.1 96.28     LegendNANA
21:00 Legend Double Dagger 2.9 1.7 92 35 46 8.1 96.16     LegendNANA
22:00 Legend Double Dagger 3.0 1.7 91 35 45 16.1 96.04     LegendNANA
23:00 Legend Double Dagger 3.1 1.9 92 34 42 6.4 95.80     LegendNANA

Notes on Data Quality.

Legend

  • E = Estimated
  • M = Missing
  • NA = Not Available
  • ‡ = Partner data that is not subject to review by the National Climate Archives
Date modified: